• In Sweden
  • List of Countries
  • For 7 days
  • Water Temperature
  • Satellite Maps
  • Weather Map
  • Weather Widgets
  • user-avatar
    Login

    Hourly Weather York

    Today, 24 September, Sunday

    Time Temperature Precipitation Wind Pressure Humidity
    00:00 +13°C° 0 mm 4 mps 763 mmHg 79%
    01:00 +13°C° 0 mm 4 mps 763 mmHg 78%
    02:00 +13°C° 0 mm 4 mps 762 mmHg 77%
    03:00 +13°C° 0 mm 4 mps 762 mmHg 76%
    04:00 +12°C° 0 mm 4 mps 762 mmHg 79%
    05:00 +11°C° 0 mm 3 mps 762 mmHg 81%
    06:00 +11°C° 0 mm 3 mps 762 mmHg 84%
    07:00 +12°C° 0 mm 4 mps 762 mmHg 81%
    08:00 +14°C° 0 mm 4 mps 763 mmHg 78%
    09:00 +15°C° 0 mm 5 mps 763 mmHg 74%
    10:00 +16°C° 0 mm 5 mps 763 mmHg 70%
    11:00 +17°C° 0 mm 5 mps 762 mmHg 67%
    12:00 +20°C° 0 mm 5 mps 762 mmHg 63%
    13:00 +20°C° 0 mm 5 mps 762 mmHg 63%
    14:00 +20°C° 0 mm 5 mps 762 mmHg 64%
    15:00 +20°C° 0 mm 4 mps 762 mmHg 64%
    16:00 +19°C° 0 mm 4 mps 762 mmHg 67%
    17:00 +18°C° 0 mm 4 mps 762 mmHg 69%
    18:00 +17°C° 0 mm 4 mps 762 mmHg 71%
    19:00 +17°C° 0 mm 4 mps 762 mmHg 72%
    20:00 +17°C° 0 mm 4 mps 762 mmHg 73%
    21:00 +15°C° 0 mm 4 mps 762 mmHg 74%
    22:00 +15°C° 0 mm 4 mps 763 mmHg 76%
    23:00 +15°C° 0 mm 4 mps 763 mmHg 78%

    Tomorrow, 25 September, Monday

    Time Temperature Precipitation Wind Pressure Humidity
    00:00 +15°C° 0 mm 4 mps 763 mmHg 81%
    01:00 +16°C° 0.1 mm 3 mps 762 mmHg 83%
    02:00 +14°C° 0.1 mm 3 mps 762 mmHg 85%
    03:00 +14°C° 0.1 mm 3 mps 762 mmHg 87%
    04:00 +14°C° 0.6 mm 3 mps 762 mmHg 89%
    05:00 +14°C° 0.6 mm 3 mps 762 mmHg 91%
    06:00 +15°C° 0.6 mm 2 mps 762 mmHg 93%
    07:00 +15°C° 0.5 mm 2 mps 763 mmHg 92%
    08:00 +16°C° 0.5 mm 2 mps 763 mmHg 91%
    09:00 +16°C° 0.5 mm 2 mps 763 mmHg 89%
    10:00 +17°C° 0.1 mm 3 mps 763 mmHg 85%
    11:00 +18°C° 0.1 mm 3 mps 763 mmHg 80%
    12:00 +19°C° 0.1 mm 3 mps 763 mmHg 75%
    13:00 +19°C° 0.1 mm 3 mps 763 mmHg 75%
    14:00 +19°C° 0.1 mm 3 mps 763 mmHg 75%
    15:00 +19°C° 0.1 mm 2 mps 763 mmHg 75%
    16:00 +18°C° 0.1 mm 2 mps 763 mmHg 79%
    17:00 +17°C° 0.1 mm 2 mps 763 mmHg 83%
    18:00 +16°C° 0.1 mm 2 mps 763 mmHg 86%
    19:00 +16°C° 0 mm 2 mps 764 mmHg 88%
    20:00 +16°C° 0 mm 1 mps 764 mmHg 90%
    21:00 +15°C° 0 mm 1 mps 764 mmHg 92%
    22:00 +15°C° 0 mm 1 mps 764 mmHg 93%
    23:00 +15°C° 0 mm 1 mps 764 mmHg 94%

    Day after tomorrow, 26 September, Tuesday

    Time Temperature Precipitation Wind Pressure Humidity
    00:00 +14°C° 0 mm 1 mps 764 mmHg 95%
    01:00 +14°C° 0 mm 1 mps 764 mmHg 95%
    02:00 +14°C° 0 mm 1 mps 764 mmHg 95%
    03:00 +13°C° 0 mm 0 mps 764 mmHg 96%
    04:00 +12°C° 0 mm 0 mps 764 mmHg 96%
    05:00 +12°C° 0 mm 0 mps 764 mmHg 96%
    06:00 +12°C° 0 mm 0 mps 764 mmHg 96%
    07:00 +14°C° 0 mm 1 mps 764 mmHg 93%
    08:00 +15°C° 0 mm 1 mps 764 mmHg 89%
    09:00 +16°C° 0 mm 1 mps 764 mmHg 86%
    10:00 +18°C° 0.1 mm 1 mps 764 mmHg 82%
    11:00 +19°C° 0.1 mm 1 mps 764 mmHg 78%
    12:00 +19°C° 0.1 mm 1 mps 764 mmHg 74%
    13:00 +20°C° 0.2 mm 1 mps 764 mmHg 72%
    14:00 +20°C° 0.2 mm 1 mps 764 mmHg 71%
    15:00 +20°C° 0.2 mm 1 mps 764 mmHg 70%
    16:00 +19°C° 0.1 mm 1 mps 764 mmHg 74%
    17:00 +18°C° 0.1 mm 1 mps 764 mmHg 78%
    18:00 +16°C° 0.1 mm 2 mps 764 mmHg 82%
    19:00 +16°C° 0 mm 2 mps 764 mmHg 85%
    20:00 +15°C° 0 mm 2 mps 764 mmHg 88%
    21:00 +15°C° 0 mm 2 mps 764 mmHg 91%
    22:00 +14°C° 0 mm 2 mps 764 mmHg 92%
    23:00 +14°C° 0 mm 2 mps 764 mmHg 92%

    27 September, Wednesday

    Time Temperature Precipitation Wind Pressure Humidity
    00:00 +14°C° 0 mm 2 mps 764 mmHg 93%
    01:00 +14°C° 0 mm 2 mps 763 mmHg 94%
    02:00 +13°C° 0 mm 2 mps 763 mmHg 94%
    03:00 +12°C° 0 mm 3 mps 763 mmHg 94%
    04:00 +12°C° 0 mm 3 mps 763 mmHg 94%
    05:00 +12°C° 0 mm 3 mps 763 mmHg 94%
    06:00 +12°C° 0 mm 3 mps 763 mmHg 95%
    07:00 +13°C° 0 mm 4 mps 763 mmHg 90%
    08:00 +14°C° 0 mm 5 mps 763 mmHg 85%
    09:00 +15°C° 0 mm 5 mps 763 mmHg 81%
    10:00 +16°C° 0 mm 6 mps 762 mmHg 76%
    11:00 +17°C° 0 mm 6 mps 762 mmHg 70%
    12:00 +19°C° 0 mm 6 mps 762 mmHg 65%
    13:00 +19°C° 0 mm 6 mps 761 mmHg 65%
    14:00 +19°C° 0 mm 6 mps 761 mmHg 64%
    15:00 +19°C° 0 mm 5 mps 760 mmHg 64%
    16:00 +17°C° 0.6 mm 5 mps 760 mmHg 69%
    17:00 +16°C° 0.6 mm 5 mps 760 mmHg 73%
    18:00 +16°C° 0.6 mm 5 mps 760 mmHg 78%
    19:00 +15°C° 2 mm 6 mps 760 mmHg 81%
    20:00 +14°C° 2 mm 6 mps 760 mmHg 84%
    21:00 +14°C° 2 mm 7 mps 760 mmHg 87%
    22:00 +14°C° 1.1 mm 6 mps 760 mmHg 88%
    23:00 +14°C° 1.1 mm 6 mps 760 mmHg 89%

    28 September, Thursday

    Time Temperature Precipitation Wind Pressure Humidity
    00:00 +14°C° 1.1 mm 5 mps 760 mmHg 90%
    01:00 +14°C° 0.1 mm 5 mps 760 mmHg 90%
    02:00 +14°C° 0.1 mm 4 mps 761 mmHg 91%
    03:00 +14°C° 0.1 mm 4 mps 761 mmHg 91%
    04:00 +13°C° 0 mm 4 mps 762 mmHg 91%
    05:00 +12°C° 0 mm 4 mps 762 mmHg 91%
    06:00 +11°C° 0 mm 3 mps 763 mmHg 91%
    07:00 +12°C° 0 mm 3 mps 763 mmHg 86%
    08:00 +13°C° 0 mm 3 mps 764 mmHg 82%
    09:00 +14°C° 0 mm 3 mps 764 mmHg 78%
    10:00 +16°C° 0 mm 3 mps 764 mmHg 72%
    11:00 +17°C° 0 mm 2 mps 764 mmHg 66%
    12:00 +18°C° 0 mm 2 mps 765 mmHg 60%
    13:00 +18°C° 0 mm 2 mps 764 mmHg 59%
    14:00 +18°C° 0 mm 2 mps 764 mmHg 58%
    15:00 +19°C° 0 mm 2 mps 764 mmHg 57%
    16:00 +17°C° 0 mm 2 mps 764 mmHg 62%
    17:00 +16°C° 0 mm 2 mps 763 mmHg 67%
    18:00 +14°C° 0 mm 3 mps 763 mmHg 72%
    19:00 +14°C° 0 mm 3 mps 763 mmHg 74%
    20:00 +14°C° 0 mm 3 mps 763 mmHg 75%
    21:00 +13°C° 0 mm 4 mps 763 mmHg 77%
    22:00 +13°C° 0 mm 4 mps 763 mmHg 79%
    23:00 +13°C° 0 mm 4 mps 762 mmHg 81%

    29 September, Friday

    Time Temperature Precipitation Wind Pressure Humidity
    00:00 +13°C° 0 mm 5 mps 761 mmHg 83%
    01:00 +13°C° 0 mm 5 mps 761 mmHg 81%
    02:00 +13°C° 0 mm 5 mps 760 mmHg 78%
    03:00 +13°C° 0 mm 6 mps 760 mmHg 76%
    04:00 +13°C° 1 mm 6 mps 759 mmHg 80%
    05:00 +13°C° 1 mm 6 mps 759 mmHg 84%
    06:00 +13°C° 1 mm 6 mps 758 mmHg 88%
    07:00 +14°C° 1.9 mm 6 mps 758 mmHg 89%
    08:00 +14°C° 1.9 mm 6 mps 757 mmHg 90%
    09:00 +14°C° 1.9 mm 6 mps 757 mmHg 91%
    10:00 +15°C° 1.9 mm 5 mps 756 mmHg 91%
    11:00 +16°C° 1.9 mm 5 mps 756 mmHg 91%
    12:00 +16°C° 1.9 mm 5 mps 756 mmHg 91%
    13:00 +16°C° 0.3 mm 5 mps 756 mmHg 89%
    14:00 +15°C° 0.3 mm 5 mps 756 mmHg 87%
    15:00 +15°C° 0.3 mm 4 mps 756 mmHg 85%
    16:00 +14°C° 0.1 mm 4 mps 756 mmHg 85%
    17:00 +13°C° 0.1 mm 4 mps 756 mmHg 85%
    18:00 +12°C° 0.1 mm 4 mps 757 mmHg 85%
    19:00 +11°C° 0 mm 4 mps 757 mmHg 86%
    20:00 +11°C° 0 mm 4 mps 758 mmHg 86%
    21:00 +10°C° 0 mm 4 mps 758 mmHg 86%
    22:00 +10°C° 0 mm 4 mps 758 mmHg 86%
    23:00 +10°C° 0 mm 4 mps 758 mmHg 87%
    Show more